Read MPEC 2007-V18
Read MPEC 2007-V20
M.P.E.C. 2007-V19 Issued 2007 Nov. 4, 18:35 UT
The Minor Planet Electronic Circulars contain information on unusual
minor planets and routine data on comets. They are published
on behalf of Commission 20 of the International Astronomical Union by the
Minor Planet Center, Smithsonian Astrophysical Observatory,
Cambridge, MA 02138, U.S.A.
Prepared using the Tamkin Foundation Computer Network
MPC@CFA.HARVARD.EDU
URL http://www.cfa.harvard.edu/iau/mpc.html ISSN 1523-6714
2007 VD3
Observations:
K07V03D* C2007 11 02.29837 03 39 14.29 -07 30 48.5 18.8 V EV019703
K07V03D C2007 11 02.30627 03 39 11.34 -07 30 20.8 19.4 V EV019703
K07V03D C2007 11 02.31420 03 39 08.35 -07 29 53.5 19.1 V EV019703
K07V03D C2007 11 02.32210 03 39 05.36 -07 29 26.1 19.1 V EV019703
K07V03D C2007 11 02.38689 03 38 41.20 -07 25 42.1 18.6 V EV019703
K07V03D C2007 11 02.39365 03 38 38.61 -07 25 17.2 18.9 V EV019703
K07V03D C2007 11 02.40045 03 38 36.09 -07 24 54.2 18.5 V EV019703
K07V03D C2007 11 02.40723 03 38 33.46 -07 24 30.9 17.1 V EV019703
K07V03D C2007 11 03.04326 03 34 49.56 -06 47 26.2 19.0 R EV019176
K07V03D C2007 11 03.04412 03 34 49.24 -06 47 23.1 19.1 R EV019176
K07V03D C2007 11 03.04498 03 34 48.92 -06 47 20.0 18.8 R EV019176
K07V03D C2007 11 03.04584 03 34 48.62 -06 47 17.3 19.0 R EV019176
K07V03D C2007 11 03.04671 03 34 48.26 -06 47 14.1 18.9 R EV019176
K07V03D C2007 11 03.15010 03 34 12.01 -06 40 04.9 18.9 R EV019I77
K07V03D C2007 11 03.15469 03 34 10.29 -06 39 48.7 18.7 R EV019I77
K07V03D C2007 11 03.15538 03 34 10.02 -06 39 45.7 18.9 R EV019I77
K07V03D C2007 11 03.15866 03 34 08.77 -06 39 34.6 19.2 R EV019I77
K07V03D 5C2007 11 03.31759 03 33 12.88 -06 31 03.9 18.8 R EV019673
K07V03D 5C2007 11 03.32350 03 33 10.67 -06 30 42.6 EV019673
K07V03D 5C2007 11 03.32743 03 33 09.15 -06 30 28.2 EV019673
K07V03D C2007 11 03.41752 03 32 34.36 -06 25 01.4 18.7 R EV019651
K07V03D C2007 11 03.41826 03 32 34.05 -06 24 58.8 18.6 R EV019651
K07V03D C2007 11 03.41901 03 32 33.80 -06 24 56.0 18.7 R EV019651
K07V03D C2007 11 04.34483 03 27 00.43 -05 28 38.8 18.8 V EV019703
K07V03D C2007 11 04.35096 03 26 58.09 -05 28 15.8 18.6 V EV019703
K07V03D C2007 11 04.35711 03 26 55.75 -05 27 53.6 18.9 V EV019703
K07V03D C2007 11 04.36323 03 26 53.34 -05 27 30.4 18.7 V EV019703
K07V03D C2007 11 04.42701 03 26 28.64 -05 23 33.2 19.0 V EV019703
K07V03D C2007 11 04.42971 03 26 27.60 -05 23 23.4 18.6 V EV019703
K07V03D C2007 11 04.43240 03 26 26.66 -05 23 13.8 18.7 V EV019703
K07V03D C2007 11 04.43508 03 26 25.65 -05 23 02.8 19.1 V EV019703
Observer details:
176 Observatori Astronomic de Consell. Observers A. Lopez, R. Pacheco.
0.41-m f/4 reflector + CCD.
651 Grasslands Observatory, Tucson. Observer J. E. McGaha. 0.62-m f/5.1
Newtonian reflector + CCD.
673 Table Mountain Observatory, Wrightwood. Observer J. Young. 0.61-m f/16
Cassegrain + CCD.
703 Catalina Sky Survey. Observer E. C. Beshore. Measurers E. C. Beshore,
A. Boattini, G. J. Garradd, A. R. Gibbs, A. D. Grauer, R. E. Hill,
R. A. Kowalski, S. M. Larson, R. H. McNaught. 0.68-m Schmidt + CCD.
I77 CEAMIG-REA Observatory, Belo Horizonte. Observers C. Jacques, E. Pimentel.
Measurer C. Jacques. 0.30-m f/3.0 Schmidt-Cassegrain + CCD.
Orbital elements:
2007 VD3 Earth MOID = 0.1314 AU
Epoch 2007 Oct. 27.0 TT = JDT 2454400.5 MPC
M 155.63616 (2000.0) P Q
n 1.02794185 Peri. 179.79024 -0.59352586 +0.78272899
a 0.9723524 Node 53.79640 -0.73874077 -0.43752566
e 0.1523761 Incl. 13.41801 -0.31935737 -0.44261339
P 0.96 H 22.0 G 0.15 U 7
Residuals in seconds of arc
071102 703 0.7+ 0.6- 071103 176 0.2+ 0.5- 071103 651 0.6- 0.5+
071102 703 0.7+ 0.1- 071103 176 0.2- 0.4- 071104 703 0.4- 0.1+
071102 703 0.2+ 0.1- 071103 I77 0.5+ 0.2+ 071104 703 0.1+ 0.3+
071102 703 0.4- 0.0 071103 I77 1.0+ 0.0 071104 703 0.8+ 0.3-
071102 703 0.5+ 0.4- 071103 I77 0.9+ 0.6+ 071104 703 0.2+ 0.2+
071102 703 0.5- 1.0+ 071103 I77 1.0+ 0.0 071104 703 0.8- 0.1+
071102 703 0.2- 0.4+ 071103 673 0.3- 0.5- 071104 703 0.9- 0.2-
071102 703 1.8- 0.1+ 071103 673 0.3+ 0.4- 071104 703 0.5+ 0.6-
071103 176 0.3- 0.2- 071103 673 0.1- 0.0 071104 703 0.8+ 0.4+
071103 176 0.2- 0.2- 071103 651 0.7- 0.5+
071103 176 0.1- 0.2- 071103 651 1.1- 0.4+
Ephemeris:
2007 VD3 a,e,i = 0.97, 0.15, 13 q = 0.8242
Date TT R. A. (2000) Decl. Delta r Elong. Phase V
2007 10 27 04 12.94 -12 46.6 0.148 1.110 139.1 35.9 19.6
2007 11 06 03 16.84 -03 43.5 0.134 1.117 158.7 18.8 18.8
2007 11 16 02 15.23 +07 30.5 0.138 1.120 160.2 17.4 18.9
2007 11 26 01 26.37 +17 03.1 0.162 1.120 142.4 32.5 19.7
2007 12 06 00 56.55 +23 40.8 0.197 1.116 127.2 44.7 20.4
2007 12 16 00 42.62 +28 22.2 0.238 1.108 115.7 53.2 21.1
2007 12 26 00 39.73 +32 04.3 0.278 1.097 106.9 59.1 21.5
2008 01 05 00 44.18 +35 16.7 0.316 1.083 99.8 63.5 21.9
Gareth V. Williams (C) Copyright 2007 MPC M.P.E.C. 2007-V19
Read MPEC 2007-V18
Read MPEC 2007-V20
Our Web policy. Index to the CBAT/MPC/ICQ pages.